Weather History for KAUW - March, 2013

Change the Weather History Date:

Wednesday, March 27, 2013

  Actual Average Record
Temperature  
Mean Temperature 35 °F 35 °F  
Max Temperature 41 °F 45 °F 72 °F (1946)
Min Temperature 28 °F 25 °F -5 °F (1964)
Degree Days  
Heating Degree Days 30 30  
Month to date heating degree days 1122 968  
Since 1 July heating degree days 6946 7104  
Cooling Degree Days 0 0  
Month to date cooling degree days 0 0  
Year to date cooling degree days 0 0  
Moisture  
Dew Point 18 °F    
Average Humidity 52    
Maximum Humidity 69    
Minimum Humidity 34    
Precipitation  
Precipitation 0.00 in 0.06 in 1.14 in (1961)
Month to date precipitation 1.54 1.50  
Year to date precipitation 4.69 3.44  
Snow  
Snow 0.00 in 0.20 in 5.60 in (1975)
Month to date snowfall 12.7 9.1  
Since 1 July snowfall 68.7 54.4  
Snow Depth 11.00 in    
Sea Level Pressure  
Sea Level Pressure 30.29 in    
Wind  
Wind Speed 6 mph (NW)    
Max Wind Speed 14 mph    
Max Gust Speed 17 mph    
Visibility 10 miles    
Events      
T = Trace of Precipitation, MM = Missing Value Source: NWS Daily Summary

Daily Weather History Graph

Daily Weather History Graph

Search for Another Location

Airport or City:

Trip Planner

Search our weather history database for the weather conditions in past years. The results will help you decide how hot, cold, wet, or windy it might be!

Date:

Astronomy

Mar. 27, 2013 Rise Set
Actual Time 6:48 AM CDT 7:20 PM CDT
Civil Twilight 6:18 AM CDT 7:49 PM CDT
Nautical Twilight 5:43 AM CDT 8:24 PM CDT
Astronomical Twilight 5:07 AM CDT 9:00 PM CDT
Moon 8:07 PM CDT (3/27) 6:36 AM CDT (3/27)
Length of Visible Light 13h 31m
Length of Day
12h 32m
Full, 100% of the Moon is Illuminated
Mar 27
Full
Apr 2
Last Quarter
Apr 10
New
Apr 18
First Quarter
Apr 25
Full

Hourly Weather History & Observations

Time (CDT) Temp. Windchill Dew Point Humidity Pressure Visibility Wind Dir Wind Speed Gust Speed Precip Events Conditions
12:54 AM 33.1 °F 30.0 °F 21.9 °F 64% 30.27 in 10.0 mi NW 3.5 mph - N/A   Overcast
1:54 AM 32.0 °F 28.7 °F 23.0 °F 69% 30.28 in 10.0 mi WNW 3.5 mph - N/A   Overcast
2:54 AM 30.9 °F 27.5 °F 21.9 °F 69% 30.27 in 10.0 mi WNW 3.5 mph - N/A   Overcast
3:54 AM 30.9 °F 25.2 °F 21.0 °F 67% 30.28 in 10.0 mi WNW 5.8 mph - N/A   Overcast
4:54 AM 28.9 °F 25.2 °F 19.9 °F 69% 30.28 in 10.0 mi WNW 3.5 mph - N/A   Overcast
5:54 AM 28.0 °F 21.7 °F 19.0 °F 69% 30.29 in 10.0 mi WNW 5.8 mph - N/A   Overcast
6:54 AM 28.0 °F 24.2 °F 19.0 °F 69% 30.30 in 10.0 mi Variable 3.5 mph - N/A   Overcast
7:54 AM 28.9 °F 25.2 °F 18.0 °F 64% 30.31 in 10.0 mi NW 3.5 mph - N/A   Overcast
8:54 AM 30.9 °F 27.5 °F 18.0 °F 59% 30.32 in 10.0 mi NW 3.5 mph - N/A   Overcast
9:54 AM 34.0 °F 28.8 °F 18.0 °F 52% 30.31 in 10.0 mi NW 5.8 mph - N/A   Overcast
10:54 AM 37.0 °F 31.0 °F 16.0 °F 42% 30.31 in 10.0 mi NW 8.1 mph 16.1 mph N/A   Overcast
11:54 AM 37.0 °F 29.3 °F 16.0 °F 42% 30.32 in 10.0 mi NW 11.5 mph - N/A   Overcast
12:54 PM 37.9 °F 31.5 °F 17.1 °F 43% 30.31 in 10.0 mi West 9.2 mph - N/A   Mostly Cloudy
1:54 PM 39.9 °F 35.1 °F 16.0 °F 38% 30.30 in 10.0 mi North 6.9 mph - N/A   Partly Cloudy
2:54 PM 39.9 °F 33.4 °F 16.0 °F 38% 30.29 in 10.0 mi North 10.4 mph - N/A   Partly Cloudy
3:54 PM 41.0 °F 37.1 °F 16.0 °F 36% 30.28 in 10.0 mi NW 5.8 mph - N/A   Partly Cloudy
4:54 PM 41.0 °F 37.1 °F 18.0 °F 40% 30.28 in 10.0 mi NW 5.8 mph - N/A   Clear
5:54 PM 39.0 °F 32.3 °F 18.0 °F 43% 30.28 in 10.0 mi West 10.4 mph - N/A   Clear
6:54 PM 37.0 °F 33.3 °F 19.9 °F 50% 30.28 in 10.0 mi West 4.6 mph - N/A   Clear
7:54 PM 35.1 °F 30.1 °F 18.0 °F 50% 30.28 in 10.0 mi West 5.8 mph - N/A   Clear
8:54 PM 34.0 °F 28.8 °F 18.0 °F 52% 30.30 in 10.0 mi NW 5.8 mph - N/A   Clear
9:54 PM 32.0 °F 26.4 °F 19.0 °F 59% 30.31 in 10.0 mi NW 5.8 mph - N/A   Clear
10:54 PM 30.0 °F 23.2 °F 18.0 °F 61% 30.31 in 10.0 mi NW 6.9 mph - N/A   Clear
11:54 PM 28.9 °F 21.9 °F 18.0 °F 64% 30.32 in 10.0 mi NW 6.9 mph - N/A   Clear